Regional Weather Roundup
Issued by NWS

Home | Current Version | Previous Version | Text Only | Print | Product List | Glossary Off
Versions: 1 2 3 4 5 6 7 8 9 10 11 12 13 14 15 16 17 18 19 20 21 22 23 24 25 26 27

000
ASUS45 KPSR 162010
RWRAZ

ARIZONA HOURLY REGIONAL WEATHER ROUNDUP
NATIONAL WEATHER SERVICE PHOENIX AZ
100 PM MST TUE JAN 16 2018

NOTE: FAIR INDICATES FEW OR NO CLOUDS BELOW 12,000 FEET WITH NO
SIGNIFICANT WEATHER AND/OR OBSTRUCTIONS TO VISIBILITY.

AZZ001>003-036-162100-
NORTHWEST ARIZONA

CITY           SKY/WX    TMP DP  RH WIND       PRES   REMARKS
BULLHEAD CITY  CLOUDY    66  36  32 N15G22    30.16F
KINGMAN        PTSUNNY   62  27  26 CALM      30.19F
$$

AZZ004>008-015-016-018-162100-
NORTH CENTRAL ARIZONA

CITY           SKY/WX    TMP DP  RH WIND       PRES   REMARKS
GRAND CANYON   SUNNY     49  22  34 NE10      30.30F
WILLIAMS       MOSUNNY   55  19  24 NW6       30.26F
PRESCOTT       SUNNY     58  26  29 CALM      30.23F
FLAGSTAFF      MOSUNNY   46  22  38 E8        30.30F
PAYSON         SUNNY     54  23  30 S8        30.25F
PAGE           SUNNY     48  18  30 NE7       30.33F
$$

AZZ009>014-017-162100-
NORTHEAST ARIZONA

CITY           SKY/WX    TMP DP  RH WIND       PRES   REMARKS
WINSLOW        SUNNY     50  23  34 VRB6      30.30F
SAINT JOHNS    MOSUNNY   46  24  42 CALM      30.29F
WINDOW ROCK    SUNNY     45  22  40 VRB5      30.31
SHOW LOW       SUNNY     48  25  40 N7        30.31F
$$

AZZ540-542>544-546-548-162100-
GREATER PHOENIX AREA

CITY           SKY/WX    TMP DP  RH WIND       PRES   REMARKS
PHOENIX        PTSUNNY   72  30  21 SE8       30.12F
BUCKEYE        MOSUNNY   68  32  26 E15       30.13F
GLENDALE       MOSUNNY   72  32  23 E8        30.15F
LUKE AFB       SUNNY     71  31  23 E5        30.11F
DEER VALLEY    SUNNY     71  28  20 S10       30.13F
SCOTTSDALE     SUNNY     71  29  21 SE10      30.14F
MESA-GATEWAY   PTSUNNY   72  25  17 SE15      30.15F
CHANDLER       PTSUNNY   72  27  18 NE10      30.13F
$$

AZZ539-553-162100-
SOUTHWEST MARICOPA COUNTY AND PINAL COUNTY

CITY           SKY/WX    TMP DP  RH WIND       PRES   REMARKS
CASA GRANDE    NOT AVBL
GILA BEND      PTSUNNY   72  25  17 E17       30.09F
$$

AZZ503-504-507>509-162100-
SOUTHEAST ARIZONA

CITY           SKY/WX    TMP DP  RH WIND       PRES   REMARKS
TUCSON         SUNNY     70  22  16 SE17      30.17F
DAVIS-MONTHAN  SUNNY     69  22  17 SE15      30.15F
RYAN FIELD     SUNNY     66  19  16 MISG      30.16F
NOGALES        SUNNY     71  20  14 VRB3      30.16F
SIERRA VISTA   MOSUNNY   56  21  25 N7        30.26F
DOUGLAS        SUNNY     53  21  28 E18       30.28F
SAFFORD        SUNNY     50  19  29 S15G24    30.36F
$$

AZZ532-162100-
SOUTHWEST ARIZONA

CITY           SKY/WX    TMP DP  RH WIND       PRES   REMARKS
YUMA           PTSUNNY   72  36  26 NE13      30.10F
$$

CAZ041-043-047-048-061-525>527-560>570-162100-
SOUTHERN CALIFORNIA

CITY           SKY/WX    TMP DP  RH WIND       PRES   REMARKS
DOWNTOWN L.A.  MOSUNNY   68  48  48 CALM      30.14F
L.A. AIRPORT   PTSUNNY   66  59  78 CALM      30.14F HAZE
SAN DIEGO      PTSUNNY   65  56  72 NW9       30.15F
BURBANK        MOSUNNY   68  43  40 SE5       30.13F
ONTARIO        PTSUNNY   67  40  37 SW5       30.14F
RIVERSIDE      PTSUNNY   66  45  46 CALM      30.14F
PALM SPRINGS   PTSUNNY   71  37  28 SE3       30.12F
IMPERIAL       CLOUDY    73  33  23 SE6       30.08F
BLYTHE         PTSUNNY   70  38  31 N3        30.13F
NEEDLES        CLOUDY    66  39  37 N7        30.16F
$$

NVZ020-UTZ003-162100-
SOUTHERN NEVADA-UTAH

CITY           SKY/WX    TMP DP  RH WIND       PRES   REMARKS
LAS VEGAS      CLOUDY    59  33  37 NE6       30.20F
SALT LAKE CITY MOSUNNY   49  25  39 N6        30.30F
$$

NMZ009-TXZ055-162100-
NEW MEXICO-WEST TEXAS

CITY           SKY/WX    TMP DP  RH WIND       PRES   REMARKS
ALBUQUERQUE    PTSUNNY   32  17  54 CALM      30.45F
EL PASO        CLOUDY    36   9  32 E10       30.46F WCI  28
$$


........................KEY........................
SKY/WX - SKY CONDITION/WEATHER
TMP    - TEMPERATURE IN FAHRENHEIT
DP     - DEW POINT IN FAHRENHEIT
RH     - RELATIVE HUMIDITY IN PERCENT
WIND   - DIRECTION AND SPEED IN MILES PER HOUR (MPH)
VRB    - VARIABLE WIND DIRECTION
PRES   - MEAN SEA LEVEL PRESSURE IN INCHES OF MERCURY
         F - FALLING PRESSURE   R - RISING PRESSURE
         S - STEADY PRESSURE
VSB    - VISIBILITY IN MILES
HX     - HEAT INDEX IN FAHRENHEIT
WCI    - WIND CHILL INDEX IN FAHRENHEIT
TC     - TEMPERATURE IN CELSIUS WHICH IS ALSO KNOWN AS
         TEMPERATURE IN CENTIGRADE
AFB    - AIR FORCE BASE
         LUKE AFB IS LUKE AIR FORCE BASE
         DAVIS-MONTHAN IS DAVIS-MONTHAN AIR FORCE BASE
NAS    - NAVAL AIR STATION
         EL CENTRO NAS IS EL CENTRO NAVAL AIR STATION
N/A    - NOT AVAILABLE





USA.gov is the U.S. government's official web portal to all federal, state and local government web resources and services.